TimeCDT,TemperatureF,Dew PointF,Humidity,Sea Level PressureIn,VisibilityMPH,Wind Direction,Wind SpeedMPH,Gust SpeedMPH,PrecipitationIn,Events,Conditions,WindDirDegrees,DateUTC
12:15 AM,57.2,53.6,88,30.02,8.0,SE,10.4,-,N/A,,Overcast,130,2013-03-30 05:15:00
12:53 AM,57.0,54.0,89,30.00,7.0,SE,10.4,-,N/A,,Mostly Cloudy,130,2013-03-30 05:53:00
1:53 AM,57.0,54.0,89,29.99,6.0,SE,9.2,-,N/A,,Overcast,130,2013-03-30 06:53:00
2:53 AM,57.0,55.0,93,29.97,7.0,SSE,9.2,-,0.00,Rain,Light Rain,160,2013-03-30 07:53:00
3:53 AM,57.0,55.0,93,29.94,9.0,SSE,12.7,-,0.00,,Mostly Cloudy,160,2013-03-30 08:53:00
4:46 AM,57.2,55.4,94,30.00,7.0,SE,3.5,-,0.00,Rain-Thunderstorm,Light Thunderstorms and Rain,140,2013-03-30 09:46:00
4:53 AM,57.0,55.0,93,30.00,7.0,North,17.3,24.2,0.00,Rain-Thunderstorm,Light Thunderstorms and Rain,360,2013-03-30 09:53:00
4:57 AM,57.2,53.6,88,30.02,3.0,North,12.7,24.2,0.04,Rain-Thunderstorm,Thunderstorms with Small Hail,10,2013-03-30 09:57:00
5:06 AM,55.4,53.6,94,30.02,1.8,North,12.7,20.7,0.21,Rain-Thunderstorm,Heavy Thunderstorms with Small Hail,350,2013-03-30 10:06:00
5:19 AM,53.6,51.8,94,29.98,3.0,ENE,8.1,-,0.47,Rain-Thunderstorm,Thunderstorms with Small Hail,70,2013-03-30 10:19:00
5:22 AM,53.6,51.8,94,29.97,6.0,SE,9.2,-,0.47,Rain-Thunderstorm,Light Thunderstorms and Rain,130,2013-03-30 10:22:00
5:44 AM,53.6,51.8,94,29.96,10.0,South,18.4,-,0.47,Rain,Light Rain,190,2013-03-30 10:44:00
5:53 AM,55.0,53.1,93,29.94,10.0,South,18.4,-,0.47,,Overcast,190,2013-03-30 10:53:00
6:53 AM,55.0,53.6,95,29.97,10.0,Calm,Calm,-,0.00,,Scattered Clouds,0,2013-03-30 11:53:00
7:53 AM,53.1,53.1,100,29.96,10.0,SSW,6.9,-,N/A,,Mostly Cloudy,210,2013-03-30 12:53:00
8:18 AM,55.4,55.4,100,29.98,8.0,South,8.1,-,N/A,,Mostly Cloudy,180,2013-03-30 13:18:00
8:53 AM,55.9,55.9,100,29.97,10.0,South,11.5,29.9,N/A,,Overcast,190,2013-03-30 13:53:00
9:29 AM,57.2,57.2,100,29.98,10.0,South,13.8,-,N/A,,Overcast,180,2013-03-30 14:29:00
9:53 AM,59.0,57.9,96,29.96,5.0,South,13.8,20.7,N/A,,Overcast,180,2013-03-30 14:53:00
10:53 AM,60.1,57.0,90,29.95,5.0,South,11.5,-,N/A,,Overcast,190,2013-03-30 15:53:00
11:53 AM,61.0,57.0,87,29.95,5.0,SSW,15.0,-,N/A,,Overcast,200,2013-03-30 16:53:00
12:22 PM,62.6,57.2,82,29.96,7.0,SW,15.0,-,N/A,,Overcast,220,2013-03-30 17:22:00
12:53 PM,64.0,57.9,80,29.94,10.0,SW,10.4,-,N/A,,Overcast,220,2013-03-30 17:53:00
1:53 PM,68.0,55.9,65,29.91,10.0,SW,8.1,-,N/A,,Mostly Cloudy,220,2013-03-30 18:53:00
2:08 PM,68.0,55.4,64,29.92,10.0,WSW,9.2,-,N/A,,Partly Cloudy,240,2013-03-30 19:08:00
2:53 PM,70.0,55.9,61,29.88,10.0,West,8.1,-,N/A,,Partly Cloudy,270,2013-03-30 19:53:00
3:53 PM,72.0,55.0,55,29.86,10.0,Variable,4.6,-,N/A,,Scattered Clouds,0,2013-03-30 20:53:00
4:53 PM,73.9,55.0,52,29.85,10.0,WSW,4.6,-,N/A,,Mostly Cloudy,240,2013-03-30 21:53:00
5:53 PM,73.9,54.0,50,29.86,10.0,North,10.4,19.6,N/A,,Scattered Clouds,350,2013-03-30 22:53:00
6:53 PM,70.0,53.1,55,29.88,10.0,North,9.2,-,N/A,,Partly Cloudy,360,2013-03-30 23:53:00
7:53 PM,66.0,53.1,63,29.89,10.0,North,6.9,-,N/A,,Clear,360,2013-03-31 00:53:00
8:53 PM,64.9,52.0,63,29.89,10.0,North,4.6,-,N/A,,Partly Cloudy,360,2013-03-31 01:53:00
9:53 PM,61.0,51.1,70,29.91,10.0,NE,4.6,-,N/A,,Partly Cloudy,40,2013-03-31 02:53:00
10:53 PM,57.0,51.1,81,29.93,10.0,North,3.5,-,N/A,,Partly Cloudy,360,2013-03-31 03:53:00
11:53 PM,60.1,52.0,75,29.94,10.0,North,5.8,-,N/A,,Mostly Cloudy,10,2013-03-31 04:53:00